SCP
0 0 0 0 0 0 1 1 1 1 2 2 2 2 2 1 1 1 1 1 1 1 1 0 0 0 0 0 0 0 0 0
0 0 0 0 0 0 1 1 1 3 3 2 2 2 2 1 1 1 1 1 1 1 1 1 1 0 0 0 0 0 0 0
0 0 0 0 0 0 1 1 2 3 4 4 4 2 1 1 1 1 1 1 1 1 1 1 1 0 0 0 0 0 0 0
0 0 0 0 0 0 2 4 4 4 5 3 1 1 0 1 1 1 1 1 1 1 1 1 1 0 0 0 0 0 0 0
0 0 0 0 0 0 0 0 1 0 1 2 2 3 2 1 1 1 1 1 1 1 1 0 0 0 0 0 0 0 0 0
0 0 0 0 0 0 0 0 0 0 0 0 2 2 1 0 0 1 1 1 1 1 1 0 0 0 0 0 0 0 0 0
0 0 0 0 0 0 0 0 0 0 0 0 0 0 0 0 0 0 0 0 1 1 1 0 0 0 0 0 0 0 0 0
0 0 0 0 0 0 0 0 0 0 0 0 0 0 0 0 0 1 1 0 0 0 0 0 0 0 0 0 0 0 0 0
0 0 0 0 0 0 0 0 0 0 0 0 0 0 0 0 0 0 0 0 0 0 0 0 0 0 0 0 0 0 0 0
0 0 0 0 0 0 0 0 0 0 0 0 0 0 0 0 0 0 0 0 0 0 0 0 0 0 0 0 0 0 0 0
0 0 0 0 0 0 0 0 0 0 0 -0 0 0 0 0 0 0 0 0 0 0 0 0 0 0 0 0 0 0 0 0
0 0 0 0 0 0 0 0 0 0 0 0 0 0 0 0 0 0 0 0 0 0 0 0 0 0 0 0 0 0 0 0
0 0 0 0 0 0 0 0 0 0 0 0 0 0 0 0 0 0 0 0 0 0 0 0 0 0 0 0 0 0 0 0
0 0 0 0 0 0 0 0 0 0 0 0 0 0 0 0 0 0 0 0 0 0 0 0 0 0 0 0 0 0 0 0
0 0 0 0 0 0 0 0 0 0 0 -0 0 0 0 0 0 0 0 0 0 0 0 0 0 0 0 0 0 0 0 0
0 0 0 0 0 0 0 0 0 0 0 -0 0 0 0 0 0 0 0 0 0 0 0 0 0 0 0 0 0 0 0 0
0 0 0 0 0 0 0 0 0 0 0 -0 -0 0 0 0 0 0 0 0 0 0 0 0 0 0 0 0 0 0 0 0
0 0 0 0 0 0 0 0 0 0 0 0 0 0 0 0 0 0 0 0 0 0 0 0 0 0 0 0 0 0 0 0
0 0 0 0 0 0 0 0 0 0 0 0 0 0 0 0 0 0 0 0 0 0 0 0 0 0 0 0 0 0 0 0
Wind_Speed_500mb
66 65 66 62 63 62 66 65 78 80 82 77 69 60 54 52 55 55 50 47 47 51 52 50 51 50 50 50 49 50 51 49
73 69 69 78 77 69 72 64 72 86 94 88 80 70 59 59 57 57 55 53 50 51 55 57 56 56 55 55 53 52 54 52
71 75 75 81 74 80 77 77 74 87 90 94 82 66 55 55 58 54 57 57 56 55 56 60 61 63 62 61 61 59 59 55
72 77 79 80 71 60 55 52 62 82 89 89 72 56 51 57 67 59 60 65 63 60 57 53 65 70 66 65 63 62 63 60
64 64 66 50 44 43 40 40 45 56 65 57 58 59 61 57 56 60 58 64 66 66 60 57 59 76 77 69 66 61 62 62
35 60 65 59 61 61 59 53 45 40 34 27 28 56 62 56 56 56 55 62 62 62 66 61 65 73 82 78 72 68 63 66
74 75 68 62 55 53 49 43 38 30 23 22 19 20 26 57 68 66 63 65 62 62 68 68 67 73 74 79 73 65 65 63
69 61 62 52 45 41 39 31 22 15 15 16 19 21 23 31 40 53 62 65 69 73 73 76 78 79 67 69 73 73 70 64
51 49 47 43 38 30 20 9 5 16 22 27 30 34 38 42 45 50 55 63 63 69 67 68 76 78 69 67 70 67 71 62
74 60 49 39 31 23 16 12 20 31 42 45 48 46 47 58 62 56 56 60 65 64 63 63 66 80 77 70 72 67 61 59
57 52 45 34 24 18 17 19 25 36 47 53 54 51 56 57 66 66 65 64 66 61 62 69 66 63 77 76 73 65 60 60
46 41 37 31 27 26 28 28 32 37 45 55 58 56 58 60 62 64 76 66 70 66 63 67 70 57 63 73 74 65 55 63
45 41 35 36 37 37 43 44 42 44 46 53 55 57 58 58 51 60 67 68 68 73 68 71 67 65 58 70 71 68 56 64
47 48 52 46 42 42 44 42 43 46 50 54 54 54 53 50 45 37 51 60 68 71 66 67 71 66 58 63 61 62 63 56
33 45 45 42 44 44 47 47 48 53 57 58 57 49 46 44 43 34 48 53 60 67 72 66 67 56 56 55 61 62 61 62
41 44 48 50 51 51 54 55 56 59 63 66 63 51 43 43 47 43 43 49 55 66 75 72 70 56 54 54 57 57 55 56
38 45 50 52 56 59 61 61 62 62 64 66 65 52 43 37 43 44 45 52 56 68 75 68 60 51 49 50 53 56 54 55
36 41 47 48 52 56 60 62 60 59 61 62 64 57 47 37 39 41 51 56 58 72 81 71 58 49 45 42 51 54 53 52
36 42 42 44 46 51 55 60 62 62 61 64 64 59 50 43 39 48 57 55 63 83 77 74 53 53 44 45 48 50 48 43
Wind_Direction_500mb
241 238 237 233 227 240 238 226 225 229 229 222 219 223 227 232 237 238 238 239 236 238 232 230 230 230 233 235 235 238 241 243
259 253 241 235 233 233 244 231 218 222 224 220 215 216 222 228 233 242 239 242 240 240 239 236 233 231 236 236 236 233 237 236
253 252 255 244 237 238 241 245 224 217 223 223 218 219 229 238 239 245 242 241 243 242 240 243 236 231 235 233 233 226 231 234
246 246 251 243 237 239 232 224 223 221 221 221 218 225 231 233 231 235 246 244 249 245 241 242 235 235 231 231 230 228 228 230
253 233 224 205 182 185 181 181 196 209 213 215 222 227 231 237 244 239 248 248 248 249 247 243 243 240 235 231 231 230 232 229
143 132 135 139 136 131 131 139 136 144 158 177 220 243 238 244 253 254 253 244 245 252 250 254 250 243 235 236 233 235 235 234
126 121 128 119 119 128 131 138 136 142 167 189 196 197 233 251 251 250 251 248 244 252 252 256 255 246 241 234 233 233 235 239
116 117 114 120 120 119 132 137 139 158 191 215 231 244 248 253 251 259 252 248 247 251 250 259 251 244 239 234 237 233 235 239
128 114 114 99 95 96 97 100 321 316 306 295 290 272 270 267 266 253 256 253 252 256 264 261 248 242 237 239 240 238 239 242
89 101 98 94 87 77 57 11 334 316 305 302 294 295 284 267 262 259 249 254 253 257 260 247 249 245 243 242 240 240 234 239
81 80 79 74 69 48 17 356 329 314 303 301 300 299 292 277 264 252 246 243 252 259 253 244 243 245 242 239 239 242 235 235
60 59 60 51 36 19 358 341 327 315 301 301 301 295 294 282 265 255 244 237 246 253 258 250 235 237 240 234 238 241 238 236
41 37 39 33 19 8 356 342 328 319 314 307 304 301 291 281 270 257 244 235 238 252 255 243 235 229 240 234 236 237 236 231
22 26 26 16 4 359 353 344 334 328 320 315 308 304 288 274 264 249 239 234 239 251 242 233 235 228 231 229 232 231 237 232
28 34 29 20 12 2 351 346 339 334 332 328 322 307 287 270 248 251 240 233 240 247 241 230 220 225 230 228 225 228 231 234
29 24 24 18 10 3 357 352 347 342 337 335 329 312 291 271 248 243 247 245 248 243 239 219 222 222 231 222 221 226 226 225
26 23 23 19 9 3 358 353 350 346 342 338 330 319 297 274 249 243 248 245 244 232 219 222 211 218 221 218 218 220 223 227
24 19 18 14 7 360 357 353 349 349 345 341 334 325 306 285 249 242 256 242 235 227 210 221 206 215 214 212 214 218 222 222
14 12 9 6 3 1 357 355 354 353 349 348 343 330 315 295 260 241 253 241 231 226 214 198 202 205 208 208 204 207 213 220
Wind_Speed_850mb
66 65 66 62 63 62 66 65 78 80 82 77 69 60 54 52 55 55 50 47 47 51 52 50 51 50 50 50 49 50 51 49
73 69 69 78 77 69 72 64 72 86 94 88 80 70 59 59 57 57 55 53 50 51 55 57 56 56 55 55 53 52 54 52
71 75 75 81 74 80 77 77 74 87 90 94 82 66 55 55 58 54 57 57 56 55 56 60 61 63 62 61 61 59 59 55
72 77 79 80 71 60 55 52 62 82 89 89 72 56 51 57 67 59 60 65 63 60 57 53 65 70 66 65 63 62 63 60
64 64 66 50 44 43 40 40 45 56 65 57 58 59 61 57 56 60 58 64 66 66 60 57 59 76 77 69 66 61 62 62
35 60 65 59 61 61 59 53 45 40 34 27 28 56 62 56 56 56 55 62 62 62 66 61 65 73 82 78 72 68 63 66
74 75 68 62 55 53 49 43 38 30 23 22 19 20 26 57 68 66 63 65 62 62 68 68 67 73 74 79 73 65 65 63
69 61 62 52 45 41 39 31 22 15 15 16 19 21 23 31 40 53 62 65 69 73 73 76 78 79 67 69 73 73 70 64
51 49 47 43 38 30 20 9 5 16 22 27 30 34 38 42 45 50 55 63 63 69 67 68 76 78 69 67 70 67 71 62
74 60 49 39 31 23 16 12 20 31 42 45 48 46 47 58 62 56 56 60 65 64 63 63 66 80 77 70 72 67 61 59
57 52 45 34 24 18 17 19 25 36 47 53 54 51 56 57 66 66 65 64 66 61 62 69 66 63 77 76 73 65 60 60
46 41 37 31 27 26 28 28 32 37 45 55 58 56 58 60 62 64 76 66 70 66 63 67 70 57 63 73 74 65 55 63
45 41 35 36 37 37 43 44 42 44 46 53 55 57 58 58 51 60 67 68 68 73 68 71 67 65 58 70 71 68 56 64
47 48 52 46 42 42 44 42 43 46 50 54 54 54 53 50 45 37 51 60 68 71 66 67 71 66 58 63 61 62 63 56
33 45 45 42 44 44 47 47 48 53 57 58 57 49 46 44 43 34 48 53 60 67 72 66 67 56 56 55 61 62 61 62
41 44 48 50 51 51 54 55 56 59 63 66 63 51 43 43 47 43 43 49 55 66 75 72 70 56 54 54 57 57 55 56
38 45 50 52 56 59 61 61 62 62 64 66 65 52 43 37 43 44 45 52 56 68 75 68 60 51 49 50 53 56 54 55
36 41 47 48 52 56 60 62 60 59 61 62 64 57 47 37 39 41 51 56 58 72 81 71 58 49 45 42 51 54 53 52
36 42 42 44 46 51 55 60 62 62 61 64 64 59 50 43 39 48 57 55 63 83 77 74 53 53 44 45 48 50 48 43
Wind_Direction_850mb
241 238 237 233 227 240 238 226 225 229 229 222 219 223 227 232 237 238 238 239 236 238 232 230 230 230 233 235 235 238 241 243
259 253 241 235 233 233 244 231 218 222 224 220 215 216 222 228 233 242 239 242 240 240 239 236 233 231 236 236 236 233 237 236
253 252 255 244 237 238 241 245 224 217 223 223 218 219 229 238 239 245 242 241 243 242 240 243 236 231 235 233 233 226 231 234
246 246 251 243 237 239 232 224 223 221 221 221 218 225 231 233 231 235 246 244 249 245 241 242 235 235 231 231 230 228 228 230
253 233 224 205 182 185 181 181 196 209 213 215 222 227 231 237 244 239 248 248 248 249 247 243 243 240 235 231 231 230 232 229
143 132 135 139 136 131 131 139 136 144 158 177 220 243 238 244 253 254 253 244 245 252 250 254 250 243 235 236 233 235 235 234
126 121 128 119 119 128 131 138 136 142 167 189 196 197 233 251 251 250 251 248 244 252 252 256 255 246 241 234 233 233 235 239
116 117 114 120 120 119 132 137 139 158 191 215 231 244 248 253 251 259 252 248 247 251 250 259 251 244 239 234 237 233 235 239
128 114 114 99 95 96 97 100 321 316 306 295 290 272 270 267 266 253 256 253 252 256 264 261 248 242 237 239 240 238 239 242
89 101 98 94 87 77 57 11 334 316 305 302 294 295 284 267 262 259 249 254 253 257 260 247 249 245 243 242 240 240 234 239
81 80 79 74 69 48 17 356 329 314 303 301 300 299 292 277 264 252 246 243 252 259 253 244 243 245 242 239 239 242 235 235
60 59 60 51 36 19 358 341 327 315 301 301 301 295 294 282 265 255 244 237 246 253 258 250 235 237 240 234 238 241 238 236
41 37 39 33 19 8 356 342 328 319 314 307 304 301 291 281 270 257 244 235 238 252 255 243 235 229 240 234 236 237 236 231
22 26 26 16 4 359 353 344 334 328 320 315 308 304 288 274 264 249 239 234 239 251 242 233 235 228 231 229 232 231 237 232
28 34 29 20 12 2 351 346 339 334 332 328 322 307 287 270 248 251 240 233 240 247 241 230 220 225 230 228 225 228 231 234
29 24 24 18 10 3 357 352 347 342 337 335 329 312 291 271 248 243 247 245 248 243 239 219 222 222 231 222 221 226 226 225
26 23 23 19 9 3 358 353 350 346 342 338 330 319 297 274 249 243 248 245 244 232 219 222 211 218 221 218 218 220 223 227
24 19 18 14 7 360 357 353 349 349 345 341 334 325 306 285 249 242 256 242 235 227 210 221 206 215 214 212 214 218 222 222
14 12 9 6 3 1 357 355 354 353 349 348 343 330 315 295 260 241 253 241 231 226 214 198 202 205 208 208 204 207 213 220